Terminal Aerodrome Forecast
Issued by NWS

Home | Current Version | Previous Version | Text Only | Print | Product List | Glossary On
Versions: 1 2 3 4 5 6 7 8 9 10 11 12 13 14 15
000
FTUS46 KLOX 282355
TAFPRB
TAF
KPRB 282355Z 2900/2924 21015KT 6SM FU SKC
     FM290400 28007KT P6SM SKC
     FM290700 VRB03KT P6SM SKC
     FM292100 21012KT P6SM SKC=

USA.gov is the U.S. government's official web portal to all federal, state and local government web resources and services.